Wetterdaten: Woche 17.08.15 - 23.08.15 (KW34)
Datum Zeit Temp. A. Feuchte A. Luftdruck Regen Wind Richtung Sonnenschein ET UV Solar Taupunkt Windchill Windben
17.08.2015 00:00 16,2 C 95 % 1009,2 hPa 0,0 l/m 1,1 km/h (0 Bft) N 0,00 h 0,000 mm 0,0 UV-I 0 W/m 15,4 C 16,2 C 3,7 km/h (1 Bft)
17.08.2015 01:00 16,0 C 95 % 1009,2 hPa 0,0 l/m 1,1 km/h (1 Bft) N 0,00 h 0,000 mm 0,0 UV-I 0 W/m 15,3 C 16,0 C 3,7 km/h (1 Bft)
17.08.2015 02:00 15,8 C 96 % 1009,1 hPa 0,0 l/m 1,6 km/h (1 Bft) W-SW 0,00 h 0,000 mm 0,0 UV-I 0 W/m 15,2 C 15,7 C 4,4 km/h (1 Bft)
17.08.2015 03:00 15,6 C 97 % 1009,0 hPa 0,0 l/m 1,3 km/h (1 Bft) N 0,00 h 0,000 mm 0,0 UV-I 0 W/m 15,1 C 15,6 C 3,3 km/h (1 Bft)
17.08.2015 04:00 15,2 C 97 % 1009,1 hPa 0,2 l/m 1,6 km/h (1 Bft) N 0,00 h 0,000 mm 0,0 UV-I 0 W/m 14,7 C 15,2 C 4,4 km/h (1 Bft)
17.08.2015 05:00 15,0 C 97 % 1009,1 hPa 0,0 l/m 1,5 km/h (1 Bft) N 0,00 h 0,000 mm 0,0 UV-I 0 W/m 14,5 C 15,0 C 4,9 km/h (1 Bft)
17.08.2015 06:00 14,7 C 96 % 1009,0 hPa 0,0 l/m 1,6 km/h (1 Bft) W-SW 0,00 h 0,000 mm 0,0 UV-I 7 W/m 14,1 C 14,7 C 5,3 km/h (1 Bft)
17.08.2015 07:00 14,6 C 96 % 1009,1 hPa 0,0 l/m 2,2 km/h (1 Bft) W-SW 0,00 h 0,000 mm 0,0 UV-I 18 W/m 14,0 C 14,6 C 5,7 km/h (2 Bft)
17.08.2015 08:00 14,7 C 96 % 1009,3 hPa 0,0 l/m 2,3 km/h (1 Bft) W-SW 0,12 h 0,000 mm 0,5 UV-I 31 W/m 14,0 C 14,6 C 6,2 km/h (2 Bft)
17.08.2015 09:00 14,7 C 96 % 1009,6 hPa 0,0 l/m 1,8 km/h (1 Bft) W-SW 0,52 h 0,025 mm 0,6 UV-I 54 W/m 14,0 C 14,7 C 5,2 km/h (1 Bft)
17.08.2015 10:00 14,6 C 96 % 1009,7 hPa 0,2 l/m 2,2 km/h (1 Bft) W-SW 1,00 h 0,025 mm 0,6 UV-I 73 W/m 14,0 C 14,6 C 5,9 km/h (2 Bft)
17.08.2015 11:00 14,6 C 96 % 1009,7 hPa 1,0 l/m 2,4 km/h (1 Bft) W-SW 0,98 h 0,051 mm 0,8 UV-I 86 W/m 14,0 C 14,6 C 6,9 km/h (2 Bft)
17.08.2015 12:00 14,6 C 96 % 1010,0 hPa 1,2 l/m 1,9 km/h (1 Bft) W-SW 0,97 h 0,051 mm 0,9 UV-I 96 W/m 14,0 C 14,5 C 5,6 km/h (2 Bft)
17.08.2015 13:00 14,8 C 96 % 1010,1 hPa 0,6 l/m 1,4 km/h (1 Bft) W-SW 1,00 h 0,051 mm 1,0 UV-I 105 W/m 14,1 C 14,7 C 4,4 km/h (1 Bft)
17.08.2015 14:00 14,9 C 95 % 1010,2 hPa 0,6 l/m 3,7 km/h (1 Bft) W-SW 1,00 h 0,051 mm 1,4 UV-I 153 W/m 14,2 C 14,7 C 9,0 km/h (2 Bft)
17.08.2015 15:00 14,8 C 95 % 1010,3 hPa 1,4 l/m 2,1 km/h (1 Bft) W-SW 0,98 h 0,076 mm 0,8 UV-I 83 W/m 14,1 C 14,8 C 6,6 km/h (2 Bft)
17.08.2015 16:00 14,8 C 96 % 1010,3 hPa 0,8 l/m 2,4 km/h (1 Bft) W-SW 1,00 h 0,051 mm 0,7 UV-I 96 W/m 14,2 C 14,7 C 5,5 km/h (2 Bft)
17.08.2015 17:00 14,5 C 96 % 1010,5 hPa 0,6 l/m 3,6 km/h (1 Bft) W-SW 1,00 h 0,051 mm 0,6 UV-I 69 W/m 13,8 C 14,3 C 8,2 km/h (2 Bft)
17.08.2015 18:00 14,2 C 96 % 1010,4 hPa 0,0 l/m 4,4 km/h (1 Bft) W-SW 0,80 h 0,025 mm 0,0 UV-I 55 W/m 13,6 C 13,8 C 9,4 km/h (2 Bft)
17.08.2015 19:00 14,0 C 96 % 1010,5 hPa 0,0 l/m 2,5 km/h (1 Bft) W-SW 0,00 h 0,025 mm 0,0 UV-I 16 W/m 13,3 C 13,8 C 7,2 km/h (2 Bft)
17.08.2015 20:00 13,8 C 96 % 1011,0 hPa 0,0 l/m 1,5 km/h (1 Bft) SW 0,00 h 0,000 mm 0,0 UV-I 0 W/m 13,1 C 13,8 C 5,0 km/h (1 Bft)
17.08.2015 21:00 13,6 C 96 % 1011,5 hPa 0,2 l/m 2,0 km/h (1 Bft) W-SW 0,00 h 0,000 mm 0,0 UV-I 0 W/m 13,0 C 13,5 C 5,8 km/h (2 Bft)
17.08.2015 22:00 13,3 C 96 % 1011,6 hPa 0,0 l/m 3,3 km/h (1 Bft) W-SW 0,00 h 0,000 mm 0,0 UV-I 0 W/m 12,7 C 13,1 C 8,6 km/h (2 Bft)
17.08.2015 23:00 13,2 C 97 % 1011,8 hPa 0,0 l/m 2,7 km/h (1 Bft) W-SW 0,00 h 0,000 mm 0,0 UV-I 0 W/m 12,7 C 13,1 C 7,9 km/h (2 Bft)
18.08.2015 00:00 13,1 C 96 % 1011,8 hPa 0,0 l/m 2,4 km/h (1 Bft) W-SW 0,00 h 0,000 mm 0,0 UV-I 0 W/m 12,5 C 13,0 C 6,1 km/h (2 Bft)
18.08.2015 01:00 13,0 C 96 % 1011,9 hPa 0,0 l/m 1,9 km/h (1 Bft) N 0,00 h 0,000 mm 0,0 UV-I 0 W/m 12,4 C 12,9 C 4,4 km/h (1 Bft)
18.08.2015 02:00 13,1 C 95 % 1012,1 hPa 0,0 l/m 0,7 km/h (0 Bft) N 0,00 h 0,000 mm 0,0 UV-I 0 W/m 12,4 C 13,1 C 2,9 km/h (1 Bft)
18.08.2015 03:00 13,1 C 96 % 1012,1 hPa 0,0 l/m 0,2 km/h (0 Bft) N 0,00 h 0,000 mm 0,0 UV-I 0 W/m 12,5 C 13,1 C 0,9 km/h (0 Bft)
18.08.2015 04:00 13,1 C 96 % 1012,0 hPa 0,2 l/m 0,2 km/h (0 Bft) N 0,00 h 0,000 mm 0,0 UV-I 0 W/m 12,5 C 13,1 C 1,1 km/h (1 Bft)
18.08.2015 05:00 12,9 C 97 % 1012,1 hPa 0,0 l/m 0,2 km/h (0 Bft) N 0,00 h 0,000 mm 0,0 UV-I 0 W/m 12,4 C 12,9 C 1,2 km/h (1 Bft)
18.08.2015 06:00 12,9 C 97 % 1012,3 hPa 0,0 l/m 0,1 km/h (0 Bft) N 0,00 h 0,000 mm 0,0 UV-I 6 W/m 12,4 C 12,9 C 0,5 km/h (0 Bft)
18.08.2015 07:00 13,0 C 97 % 1012,9 hPa 0,0 l/m 0,0 km/h (0 Bft) N 0,00 h 0,000 mm 0,0 UV-I 19 W/m 12,6 C 13,0 C 0,1 km/h (0 Bft)
18.08.2015 08:00 13,3 C 96 % 1013,1 hPa 0,0 l/m 0,1 km/h (0 Bft) N 0,35 h 0,000 mm 0,5 UV-I 45 W/m 12,8 C 13,3 C 0,8 km/h (0 Bft)
18.08.2015 09:00 14,0 C 94 % 1013,4 hPa 0,0 l/m 3,6 km/h (1 Bft) W-SW 1,00 h 0,025 mm 0,9 UV-I 121 W/m 13,0 C 13,8 C 7,6 km/h (2 Bft)
18.08.2015 10:00 14,8 C 91 % 1013,6 hPa 0,0 l/m 2,0 km/h (1 Bft) W-SW 1,00 h 0,051 mm 1,4 UV-I 193 W/m 13,3 C 14,7 C 5,8 km/h (2 Bft)
18.08.2015 11:00 15,6 C 87 % 1013,9 hPa 0,0 l/m 1,9 km/h (1 Bft) W 1,00 h 0,102 mm 2,5 UV-I 284 W/m 13,3 C 15,5 C 5,5 km/h (2 Bft)
18.08.2015 12:00 16,7 C 82 % 1014,1 hPa 0,0 l/m 2,3 km/h (1 Bft) W 1,00 h 0,152 mm 2,8 UV-I 323 W/m 13,6 C 16,6 C 6,0 km/h (2 Bft)
18.08.2015 13:00 17,7 C 77 % 1014,2 hPa 0,2 l/m 4,5 km/h (1 Bft) W 1,00 h 0,178 mm 3,8 UV-I 474 W/m 13,6 C 17,4 C 9,2 km/h (2 Bft)
18.08.2015 14:00 18,1 C 74 % 1014,3 hPa 0,0 l/m 4,0 km/h (1 Bft) N-NW 1,00 h 0,279 mm 3,0 UV-I 380 W/m 13,4 C 17,8 C 8,7 km/h (2 Bft)
18.08.2015 15:00 18,0 C 74 % 1014,7 hPa 0,0 l/m 2,1 km/h (1 Bft) N 1,00 h 0,229 mm 1,8 UV-I 208 W/m 13,3 C 17,9 C 5,2 km/h (1 Bft)
18.08.2015 16:00 17,6 C 74 % 1015,0 hPa 0,0 l/m 3,7 km/h (1 Bft) N 1,00 h 0,127 mm 1,1 UV-I 175 W/m 12,9 C 17,4 C 7,5 km/h (2 Bft)
18.08.2015 17:00 18,0 C 73 % 1015,2 hPa 0,0 l/m 4,8 km/h (1 Bft) NW 1,00 h 0,127 mm 1,3 UV-I 275 W/m 13,0 C 17,6 C 9,6 km/h (2 Bft)
18.08.2015 18:00 17,0 C 77 % 1015,4 hPa 0,0 l/m 2,9 km/h (1 Bft) N 1,00 h 0,178 mm 0,6 UV-I 86 W/m 12,8 C 16,8 C 6,0 km/h (2 Bft)
18.08.2015 19:00 16,3 C 80 % 1015,4 hPa 0,0 l/m 1,0 km/h (0 Bft) N 0,27 h 0,051 mm 0,0 UV-I 42 W/m 12,9 C 16,3 C 2,6 km/h (1 Bft)
18.08.2015 20:00 15,2 C 85 % 1015,8 hPa 0,0 l/m 0,0 km/h (0 Bft) N 0,00 h 0,025 mm 0,0 UV-I 9 W/m 12,7 C 15,2 C 0,0 km/h (0 Bft)
18.08.2015 21:00 13,9 C 90 % 1016,2 hPa 0,0 l/m 0,0 km/h (0 Bft) N 0,00 h 0,000 mm 0,0 UV-I 0 W/m 12,3 C 13,9 C 0,0 km/h (0 Bft)
18.08.2015 22:00 12,9 C 94 % 1016,5 hPa 0,0 l/m 0,0 km/h (0 Bft) N 0,00 h 0,000 mm 0,0 UV-I 0 W/m 12,0 C 12,9 C 0,0 km/h (0 Bft)
18.08.2015 23:00 12,2 C 95 % 1016,7 hPa 0,0 l/m 0,0 km/h (0 Bft) N 0,00 h 0,000 mm 0,0 UV-I 0 W/m 11,5 C 12,2 C 0,0 km/h (0 Bft)
19.08.2015 00:00 11,7 C 96 % 1017,3 hPa 0,0 l/m 0,0 km/h (0 Bft) N 0,00 h 0,000 mm 0,0 UV-I 0 W/m 11,1 C 11,7 C 0,0 km/h (0 Bft)
19.08.2015 01:00 10,9 C 97 % 1017,4 hPa 0,0 l/m 0,0 km/h (0 Bft) N 0,00 h 0,000 mm 0,0 UV-I 0 W/m 10,4 C 10,9 C 0,0 km/h (0 Bft)
19.08.2015 02:00 10,9 C 97 % 1017,2 hPa 0,0 l/m 0,0 km/h (0 Bft) N 0,00 h 0,000 mm 0,0 UV-I 0 W/m 10,4 C 10,9 C 0,0 km/h (0 Bft)
19.08.2015 03:00 11,3 C 97 % 1017,2 hPa 0,0 l/m 0,0 km/h (0 Bft) N 0,00 h 0,000 mm 0,0 UV-I 0 W/m 10,8 C 11,3 C 0,0 km/h (0 Bft)
19.08.2015 04:00 11,4 C 98 % 1017,2 hPa 0,0 l/m 1,6 km/h (1 Bft) NW 0,00 h 0,000 mm 0,0 UV-I 0 W/m 11,1 C 11,4 C 4,3 km/h (1 Bft)
19.08.2015 05:00 11,6 C 98 % 1017,2 hPa 0,0 l/m 1,0 km/h (0 Bft) N 0,00 h 0,000 mm 0,0 UV-I 0 W/m 11,3 C 11,6 C 3,1 km/h (1 Bft)
19.08.2015 06:00 11,5 C 98 % 1017,3 hPa 0,0 l/m 0,7 km/h (0 Bft) N 0,00 h 0,000 mm 0,0 UV-I 15 W/m 11,2 C 11,5 C 2,1 km/h (1 Bft)
19.08.2015 07:00 12,0 C 97 % 1017,4 hPa 0,0 l/m 0,0 km/h (0 Bft) N 0,85 h 0,000 mm 0,5 UV-I 78 W/m 11,5 C 12,0 C 0,0 km/h (0 Bft)
19.08.2015 08:00 13,4 C 93 % 1017,8 hPa 0,0 l/m 0,0 km/h (0 Bft) N-NW 1,00 h 0,051 mm 0,5 UV-I 96 W/m 12,3 C 13,4 C 0,2 km/h (0 Bft)
19.08.2015 09:00 15,0 C 87 % 1018,0 hPa 0,0 l/m 1,4 km/h (1 Bft) NW 1,00 h 0,051 mm 1,5 UV-I 238 W/m 12,8 C 15,0 C 3,6 km/h (1 Bft)
19.08.2015 14:00 16,5 C 82 % 1018,7 hPa 0,0 l/m 10,4 km/h (2 Bft) N 1,25 h 0,000 mm 1,0 UV-I 105 W/m 13,4 C 14,7 C 15,8 km/h (3 Bft)
19.08.2015 15:00 16,0 C 85 % 1018,8 hPa 0,0 l/m 8,0 km/h (2 Bft) N 1,00 h 0,127 mm 1,2 UV-I 131 W/m 13,6 C 14,8 C 12,9 km/h (3 Bft)
19.08.2015 16:00 15,8 C 86 % 1019,3 hPa 0,0 l/m 8,8 km/h (2 Bft) N 0,55 h 0,076 mm 0,9 UV-I 71 W/m 13,4 C 14,5 C 13,6 km/h (3 Bft)
19.08.2015 17:00 14,6 C 94 % 1019,5 hPa 0,0 l/m 0,7 km/h (0 Bft) N 0,00 h 0,051 mm 0,0 UV-I 11 W/m 13,6 C 14,6 C 1,7 km/h (1 Bft)
19.08.2015 18:00 19,3 C 78 % 1019,6 hPa 0,4 l/m 1,4 km/h (1 Bft) N 0,00 h 0,000 mm 0,0 UV-I 11 W/m 15,0 C 19,3 C 4,1 km/h (1 Bft)
19.08.2015 19:00 20,0 C 71 % 1019,8 hPa 0,0 l/m 5,9 km/h (2 Bft) N 0,00 h 0,025 mm 0,0 UV-I 8 W/m 14,2 C 19,5 C 10,6 km/h (2 Bft)
19.08.2015 20:00 14,0 C 93 % 1020,3 hPa 0,0 l/m 0,5 km/h (0 Bft) N 0,00 h 0,025 mm 0,0 UV-I 0 W/m 12,8 C 13,9 C 1,2 km/h (1 Bft)
19.08.2015 21:00 13,9 C 93 % 1020,6 hPa 0,0 l/m 0,3 km/h (0 Bft) N 0,00 h 0,000 mm 0,0 UV-I 0 W/m 12,7 C 13,9 C 1,3 km/h (1 Bft)
19.08.2015 22:00 13,7 C 93 % 1020,6 hPa 0,0 l/m 0,0 km/h (0 Bft) N 0,00 h 0,000 mm 0,0 UV-I 0 W/m 12,5 C 13,7 C 0,0 km/h (0 Bft)
19.08.2015 23:00 13,3 C 94 % 1020,9 hPa 0,0 l/m 0,0 km/h (0 Bft) N 0,00 h 0,000 mm 0,0 UV-I 0 W/m 12,4 C 13,3 C 0,0 km/h (0 Bft)
20.08.2015 00:00 13,3 C 94 % 1021,1 hPa 0,0 l/m 0,0 km/h (0 Bft) N 0,00 h 0,000 mm 0,0 UV-I 0 W/m 12,3 C 13,3 C 0,0 km/h (0 Bft)
20.08.2015 01:00 13,2 C 94 % 1021,2 hPa 0,0 l/m 0,0 km/h (0 Bft) N 0,00 h 0,000 mm 0,0 UV-I 0 W/m 12,3 C 13,2 C 0,0 km/h (0 Bft)
20.08.2015 02:00 13,1 C 94 % 1021,2 hPa 0,0 l/m 0,0 km/h (0 Bft) N 0,00 h 0,000 mm 0,0 UV-I 0 W/m 12,2 C 13,1 C 0,0 km/h (0 Bft)
20.08.2015 03:00 13,1 C 95 % 1021,1 hPa 0,0 l/m 0,0 km/h (0 Bft) N 0,00 h 0,000 mm 0,0 UV-I 0 W/m 12,3 C 13,1 C 0,0 km/h (0 Bft)
20.08.2015 04:00 13,1 C 95 % 1021,1 hPa 0,0 l/m 0,0 km/h (0 Bft) N 0,00 h 0,000 mm 0,0 UV-I 0 W/m 12,3 C 13,1 C 0,0 km/h (0 Bft)
20.08.2015 05:00 13,1 C 95 % 1021,1 hPa 0,0 l/m 0,0 km/h (0 Bft) N 0,00 h 0,000 mm 0,0 UV-I 0 W/m 12,3 C 13,1 C 0,0 km/h (0 Bft)
20.08.2015 06:00 13,1 C 95 % 1021,6 hPa 0,0 l/m 0,0 km/h (0 Bft) N 0,00 h 0,000 mm 0,0 UV-I 9 W/m 12,3 C 13,1 C 0,0 km/h (0 Bft)
20.08.2015 07:00 13,3 C 95 % 1021,9 hPa 0,0 l/m 0,0 km/h (0 Bft) N 0,18 h 0,000 mm 0,0 UV-I 32 W/m 12,5 C 13,3 C 0,0 km/h (0 Bft)
20.08.2015 08:00 13,9 C 94 % 1022,1 hPa 0,0 l/m 0,0 km/h (0 Bft) N 0,95 h 0,025 mm 0,0 UV-I 56 W/m 12,9 C 13,9 C 0,1 km/h (0 Bft)
20.08.2015 09:00 14,3 C 93 % 1022,4 hPa 0,0 l/m 0,0 km/h (0 Bft) N 0,70 h 0,025 mm 0,5 UV-I 59 W/m 13,1 C 14,3 C 0,0 km/h (0 Bft)
20.08.2015 10:00 14,7 C 91 % 1022,6 hPa 0,0 l/m 0,1 km/h (0 Bft) N 1,00 h 0,025 mm 0,8 UV-I 97 W/m 13,2 C 14,7 C 0,4 km/h (0 Bft)
20.08.2015 11:00 15,4 C 87 % 1022,8 hPa 0,0 l/m 0,1 km/h (0 Bft) N 1,00 h 0,051 mm 1,0 UV-I 120 W/m 13,3 C 15,4 C 0,6 km/h (0 Bft)
20.08.2015 12:00 15,8 C 84 % 1022,9 hPa 0,0 l/m 0,1 km/h (0 Bft) N 1,00 h 0,076 mm 1,1 UV-I 126 W/m 13,1 C 15,8 C 0,3 km/h (0 Bft)
20.08.2015 13:00 16,1 C 82 % 1023,2 hPa 0,0 l/m 0,1 km/h (0 Bft) N 1,00 h 0,076 mm 1,1 UV-I 121 W/m 13,0 C 16,1 C 0,2 km/h (0 Bft)
20.08.2015 14:00 16,7 C 82 % 1023,3 hPa 0,0 l/m 0,6 km/h (0 Bft) N 1,00 h 0,076 mm 1,2 UV-I 145 W/m 13,6 C 16,7 C 1,4 km/h (1 Bft)
20.08.2015 15:00 16,8 C 81 % 1023,5 hPa 0,0 l/m 0,5 km/h (0 Bft) N 1,00 h 0,076 mm 0,9 UV-I 115 W/m 13,6 C 16,8 C 1,1 km/h (1 Bft)
20.08.2015 16:00 16,7 C 81 % 1023,4 hPa 0,0 l/m 0,3 km/h (0 Bft) N 1,00 h 0,076 mm 0,7 UV-I 107 W/m 13,4 C 16,7 C 1,7 km/h (1 Bft)
20.08.2015 17:00 17,0 C 79 % 1023,3 hPa 0,0 l/m 1,4 km/h (1 Bft) N 0,88 h 0,051 mm 0,7 UV-I 98 W/m 13,4 C 17,0 C 3,6 km/h (1 Bft)
20.08.2015 18:00 16,7 C 82 % 1023,4 hPa 0,0 l/m 0,2 km/h (0 Bft) N 0,00 h 0,051 mm 0,0 UV-I 29 W/m 13,6 C 16,7 C 1,0 km/h (0 Bft)
20.08.2015 19:00 15,9 C 87 % 1023,6 hPa 0,0 l/m 0,0 km/h (0 Bft) N 0,00 h 0,025 mm 0,0 UV-I 9 W/m 13,7 C 15,9 C 0,0 km/h (0 Bft)
20.08.2015 20:00 15,4 C 89 % 1023,9 hPa 0,0 l/m 0,0 km/h (0 Bft) N 0,00 h 0,000 mm 0,0 UV-I 0 W/m 13,5 C 15,4 C 0,2 km/h (0 Bft)
20.08.2015 21:00 15,1 C 91 % 1024,2 hPa 0,0 l/m 0,0 km/h (0 Bft) N 0,00 h 0,000 mm 0,0 UV-I 0 W/m 13,7 C 15,1 C 0,1 km/h (0 Bft)
20.08.2015 22:00 14,8 C 93 % 1024,2 hPa 0,0 l/m 0,0 km/h (0 Bft) N 0,00 h 0,000 mm 0,0 UV-I 0 W/m 13,7 C 14,8 C 0,1 km/h (0 Bft)
20.08.2015 23:00 14,6 C 94 % 1024,6 hPa 0,0 l/m 0,0 km/h (0 Bft) N 0,00 h 0,000 mm 0,0 UV-I 0 W/m 13,6 C 14,6 C 0,0 km/h (0 Bft)
21.08.2015 00:00 14,4 C 94 % 1024,5 hPa 0,0 l/m 0,0 km/h (0 Bft) N 0,00 h 0,000 mm 0,0 UV-I 0 W/m 13,4 C 14,4 C 0,0 km/h (0 Bft)
21.08.2015 01:00 13,9 C 95 % 1024,3 hPa 0,0 l/m 0,0 km/h (0 Bft) N 0,00 h 0,000 mm 0,0 UV-I 0 W/m 13,1 C 13,9 C 0,0 km/h (0 Bft)
21.08.2015 02:00 13,3 C 96 % 1024,2 hPa 0,0 l/m 0,0 km/h (0 Bft) N 0,00 h 0,000 mm 0,0 UV-I 0 W/m 12,7 C 13,3 C 0,0 km/h (0 Bft)
21.08.2015 03:00 12,4 C 96 % 1024,1 hPa 0,0 l/m 0,0 km/h (0 Bft) N 0,00 h 0,000 mm 0,0 UV-I 0 W/m 11,8 C 12,4 C 0,0 km/h (0 Bft)
21.08.2015 04:00 11,3 C 97 % 1024,0 hPa 0,0 l/m 0,0 km/h (0 Bft) N 0,00 h 0,000 mm 0,0 UV-I 0 W/m 10,8 C 11,3 C 0,0 km/h (0 Bft)
21.08.2015 05:00 11,1 C 98 % 1024,1 hPa 0,0 l/m 0,0 km/h (0 Bft) N 0,00 h 0,000 mm 0,0 UV-I 0 W/m 10,8 C 11,1 C 0,0 km/h (0 Bft)
21.08.2015 06:00 10,9 C 98 % 1024,5 hPa 0,0 l/m 0,0 km/h (0 Bft) N 0,00 h 0,000 mm 0,0 UV-I 15 W/m 10,6 C 10,9 C 0,0 km/h (0 Bft)
21.08.2015 07:00 11,0 C 98 % 1024,7 hPa 0,0 l/m 0,0 km/h (0 Bft) N 0,00 h 0,000 mm 0,0 UV-I 39 W/m 10,7 C 11,0 C 0,0 km/h (0 Bft)
21.08.2015 08:00 12,1 C 98 % 1024,7 hPa 0,0 l/m 0,3 km/h (0 Bft) N 0,70 h 0,025 mm 0,7 UV-I 55 W/m 11,8 C 12,1 C 0,8 km/h (0 Bft)
21.08.2015 09:00 15,6 C 86 % 1024,7 hPa 0,0 l/m 0,6 km/h (0 Bft) N 1,00 h 0,025 mm 1,1 UV-I 82 W/m 13,2 C 15,6 C 1,8 km/h (1 Bft)
21.08.2015 10:00 20,7 C 59 % 1024,7 hPa 0,0 l/m 0,2 km/h (0 Bft) N 1,00 h 0,051 mm 2,7 UV-I 584 W/m 12,2 C 20,7 C 1,3 km/h (1 Bft)
21.08.2015 11:00 22,8 C 44 % 1024,4 hPa 0,0 l/m 2,3 km/h (1 Bft) SO 1,00 h 0,356 mm 4,0 UV-I 706 W/m 9,9 C 22,8 C 6,0 km/h (2 Bft)
21.08.2015 12:00 24,1 C 39 % 1024,0 hPa 0,0 l/m 2,9 km/h (1 Bft) O-NO 1,00 h 0,457 mm 4,2 UV-I 753 W/m 9,3 C 24,0 C 7,0 km/h (2 Bft)
21.08.2015 13:00 22,9 C 42 % 1023,8 hPa 0,0 l/m 1,4 km/h (1 Bft) N 1,00 h 0,457 mm 3,0 UV-I 392 W/m 9,3 C 22,9 C 4,1 km/h (1 Bft)
21.08.2015 14:00 23,4 C 42 % 1023,4 hPa 0,0 l/m 3,0 km/h (1 Bft) N 1,00 h 0,254 mm 2,6 UV-I 391 W/m 9,6 C 23,3 C 6,8 km/h (2 Bft)
21.08.2015 15:00 23,7 C 39 % 1023,0 hPa 0,0 l/m 1,2 km/h (1 Bft) N 1,00 h 0,279 mm 3,2 UV-I 649 W/m 9,0 C 23,7 C 3,3 km/h (1 Bft)
21.08.2015 16:00 22,5 C 40 % 1022,7 hPa 0,0 l/m 0,6 km/h (0 Bft) N 1,00 h 0,406 mm 1,5 UV-I 223 W/m 8,3 C 22,5 C 1,8 km/h (1 Bft)
21.08.2015 17:00 22,5 C 38 % 1022,4 hPa 0,0 l/m 0,4 km/h (0 Bft) N 1,00 h 0,152 mm 0,9 UV-I 139 W/m 7,3 C 22,5 C 1,5 km/h (1 Bft)
21.08.2015 18:00 21,4 C 43 % 1022,3 hPa 0,0 l/m 0,6 km/h (0 Bft) N 0,95 h 0,102 mm 0,5 UV-I 78 W/m 8,3 C 21,4 C 1,9 km/h (1 Bft)
21.08.2015 19:00 19,4 C 51 % 1022,5 hPa 0,0 l/m 0,4 km/h (0 Bft) N 0,00 h 0,051 mm 0,0 UV-I 23 W/m 8,8 C 19,4 C 1,7 km/h (1 Bft)
21.08.2015 20:00 16,8 C 65 % 1022,7 hPa 0,0 l/m 0,0 km/h (0 Bft) N 0,00 h 0,025 mm 0,0 UV-I 7 W/m 10,1 C 16,8 C 0,0 km/h (0 Bft)
21.08.2015 21:00 14,2 C 80 % 1022,9 hPa 0,0 l/m 0,0 km/h (0 Bft) N 0,00 h 0,000 mm 0,0 UV-I 0 W/m 10,8 C 14,2 C 0,0 km/h (0 Bft)
21.08.2015 22:00 13,0 C 81 % 1022,9 hPa 0,0 l/m 0,0 km/h (0 Bft) N 0,00 h 0,025 mm 0,0 UV-I 0 W/m 9,8 C 13,0 C 0,0 km/h (0 Bft)
21.08.2015 23:00 11,9 C 87 % 1022,9 hPa 0,0 l/m 0,0 km/h (0 Bft) N 0,00 h 0,025 mm 0,0 UV-I 0 W/m 9,8 C 11,9 C 0,0 km/h (0 Bft)
22.08.2015 00:00 10,9 C 90 % 1022,7 hPa 0,0 l/m 0,0 km/h (0 Bft) N 0,00 h 0,000 mm 0,0 UV-I 0 W/m 9,3 C 10,9 C 0,0 km/h (0 Bft)
22.08.2015 01:00 10,1 C 91 % 1022,5 hPa 0,0 l/m 0,0 km/h (0 Bft) N 0,00 h 0,000 mm 0,0 UV-I 0 W/m 8,8 C 10,1 C 0,0 km/h (0 Bft)
22.08.2015 02:00 9,3 C 92 % 1022,2 hPa 0,0 l/m 0,0 km/h (0 Bft) N 0,00 h 0,000 mm 0,0 UV-I 0 W/m 8,1 C 9,3 C 0,0 km/h (0 Bft)
22.08.2015 03:00 8,7 C 93 % 1021,9 hPa 0,0 l/m 0,0 km/h (0 Bft) N 0,00 h 0,000 mm 0,0 UV-I 0 W/m 7,7 C 8,7 C 0,0 km/h (0 Bft)
22.08.2015 04:00 8,1 C 94 % 1021,6 hPa 0,0 l/m 0,0 km/h (0 Bft) N 0,00 h 0,000 mm 0,0 UV-I 0 W/m 7,2 C 8,1 C 0,0 km/h (0 Bft)
22.08.2015 05:00 7,8 C 94 % 1021,6 hPa 0,0 l/m 0,0 km/h (0 Bft) N 0,00 h 0,000 mm 0,0 UV-I 0 W/m 6,9 C 7,8 C 0,0 km/h (0 Bft)
22.08.2015 06:00 7,7 C 95 % 1021,5 hPa 0,0 l/m 0,0 km/h (0 Bft) N 0,00 h 0,000 mm 0,0 UV-I 12 W/m 6,9 C 7,7 C 0,0 km/h (0 Bft)
22.08.2015 07:00 8,3 C 94 % 1021,5 hPa 0,0 l/m 0,0 km/h (0 Bft) N 0,30 h 0,000 mm 0,5 UV-I 59 W/m 7,4 C 8,3 C 0,0 km/h (0 Bft)
22.08.2015 08:00 12,0 C 88 % 1021,4 hPa 0,0 l/m 0,0 km/h (0 Bft) N 1,00 h 0,025 mm 0,8 UV-I 258 W/m 10,0 C 12,0 C 0,0 km/h (0 Bft)
22.08.2015 09:00 17,8 C 71 % 1020,9 hPa 0,0 l/m 0,0 km/h (0 Bft) N 1,00 h 0,127 mm 1,7 UV-I 436 W/m 12,4 C 17,8 C 0,6 km/h (0 Bft)
22.08.2015 10:00 21,3 C 50 % 1020,5 hPa 0,0 l/m 1,3 km/h (1 Bft) O-NO 1,00 h 0,254 mm 2,6 UV-I 579 W/m 10,3 C 21,3 C 3,9 km/h (1 Bft)
22.08.2015 11:00 22,8 C 42 % 1020,1 hPa 0,0 l/m 3,2 km/h (1 Bft) O-SO 1,00 h 0,356 mm 3,6 UV-I 631 W/m 9,0 C 22,7 C 8,2 km/h (2 Bft)
22.08.2015 12:00 22,2 C 42 % 1019,8 hPa 0,0 l/m 1,4 km/h (1 Bft) O 1,00 h 0,406 mm 2,7 UV-I 282 W/m 8,6 C 22,2 C 4,3 km/h (1 Bft)
22.08.2015 13:00 23,1 C 40 % 1019,4 hPa 0,0 l/m 1,7 km/h (1 Bft) O-SO 1,00 h 0,178 mm 3,8 UV-I 539 W/m 8,6 C 23,1 C 5,3 km/h (1 Bft)
22.08.2015 14:00 24,5 C 36 % 1018,9 hPa 0,0 l/m 3,3 km/h (1 Bft) O 1,00 h 0,356 mm 4,2 UV-I 761 W/m 8,4 C 24,4 C 8,6 km/h (2 Bft)
22.08.2015 15:00 24,6 C 36 % 1018,6 hPa 0,0 l/m 2,8 km/h (1 Bft) O-NO 1,00 h 0,508 mm 3,1 UV-I 698 W/m 8,5 C 24,5 C 8,3 km/h (2 Bft)
22.08.2015 16:00 23,7 C 38 % 1018,3 hPa 0,0 l/m 2,8 km/h (1 Bft) N-NO 1,00 h 0,457 mm 1,9 UV-I 442 W/m 8,4 C 23,7 C 7,6 km/h (2 Bft)
22.08.2015 17:00 22,6 C 43 % 1017,9 hPa 0,0 l/m 1,8 km/h (1 Bft) O-NO 1,00 h 0,305 mm 0,9 UV-I 170 W/m 9,2 C 22,6 C 5,4 km/h (1 Bft)
22.08.2015 18:00 21,1 C 47 % 1017,5 hPa 0,0 l/m 2,6 km/h (1 Bft) O-NO 0,30 h 0,127 mm 0,6 UV-I 54 W/m 9,5 C 21,1 C 6,7 km/h (2 Bft)
22.08.2015 19:00 20,1 C 50 % 1017,3 hPa 0,0 l/m 1,6 km/h (1 Bft) O-NO 0,00 h 0,051 mm 0,0 UV-I 23 W/m 9,2 C 20,1 C 4,6 km/h (1 Bft)
22.08.2015 20:00 18,1 C 56 % 1017,2 hPa 0,0 l/m 0,2 km/h (0 Bft) N 0,00 h 0,025 mm 0,0 UV-I 6 W/m 9,1 C 18,1 C 1,9 km/h (1 Bft)
22.08.2015 21:00 16,6 C 58 % 1017,2 hPa 0,0 l/m 0,6 km/h (0 Bft) O-NO 0,00 h 0,000 mm 0,0 UV-I 0 W/m 8,5 C 16,6 C 3,2 km/h (1 Bft)
22.08.2015 22:00 15,6 C 60 % 1017,1 hPa 0,0 l/m 1,0 km/h (0 Bft) N 0,00 h 0,025 mm 0,0 UV-I 0 W/m 8,0 C 15,6 C 3,4 km/h (1 Bft)
22.08.2015 23:00 14,8 C 62 % 1016,9 hPa 0,0 l/m 0,0 km/h (0 Bft) N 0,00 h 0,025 mm 0,0 UV-I 0 W/m 7,6 C 14,8 C 0,0 km/h (0 Bft)
23.08.2015 00:00 13,6 C 68 % 1016,5 hPa 0,0 l/m 2,1 km/h (1 Bft) N 0,00 h 0,025 mm 0,0 UV-I 0 W/m 7,9 C 13,6 C 4,0 km/h (1 Bft)
23.08.2015 01:00 12,9 C 71 % 1016,0 hPa 0,0 l/m 0,0 km/h (0 Bft) N 0,00 h 0,025 mm 0,0 UV-I 0 W/m 7,7 C 12,9 C 0,3 km/h (0 Bft)
23.08.2015 02:00 12,3 C 74 % 1015,4 hPa 0,0 l/m 1,2 km/h (1 Bft) N-NO 0,00 h 0,025 mm 0,0 UV-I 0 W/m 7,8 C 12,3 C 3,1 km/h (1 Bft)
23.08.2015 03:00 11,4 C 78 % 1015,1 hPa 0,0 l/m 0,4 km/h (0 Bft) N 0,00 h 0,025 mm 0,0 UV-I 0 W/m 7,6 C 11,4 C 1,0 km/h (0 Bft)
23.08.2015 04:00 9,9 C 86 % 1014,7 hPa 0,0 l/m 0,1 km/h (0 Bft) N 0,00 h 0,025 mm 0,0 UV-I 0 W/m 7,6 C 9,9 C 0,5 km/h (0 Bft)
23.08.2015 05:00 9,4 C 89 % 1014,1 hPa 0,0 l/m 0,5 km/h (0 Bft) N 0,00 h 0,000 mm 0,0 UV-I 0 W/m 7,6 C 9,4 C 1,2 km/h (1 Bft)
23.08.2015 06:00 8,7 C 90 % 1013,7 hPa 0,0 l/m 0,0 km/h (0 Bft) N 0,00 h 0,000 mm 0,0 UV-I 13 W/m 7,2 C 8,7 C 0,0 km/h (0 Bft)
23.08.2015 07:00 10,8 C 86 % 1013,5 hPa 0,0 l/m 0,3 km/h (0 Bft) N 0,52 h 0,000 mm 0,5 UV-I 72 W/m 8,5 C 10,8 C 1,0 km/h (0 Bft)
23.08.2015 08:00 14,3 C 73 % 1013,3 hPa 0,0 l/m 1,4 km/h (1 Bft) N 1,00 h 0,025 mm 0,9 UV-I 276 W/m 9,5 C 14,3 C 3,4 km/h (1 Bft)
23.08.2015 09:00 17,6 C 64 % 1012,8 hPa 0,0 l/m 3,4 km/h (1 Bft) O-NO 1,00 h 0,152 mm 1,8 UV-I 443 W/m 10,7 C 17,5 C 8,3 km/h (2 Bft)
23.08.2015 10:00 20,2 C 56 % 1011,9 hPa 0,0 l/m 3,6 km/h (1 Bft) O-NO 1,00 h 0,254 mm 2,7 UV-I 581 W/m 11,1 C 20,1 C 10,1 km/h (2 Bft)
23.08.2015 11:00 21,0 C 52 % 1011,2 hPa 0,0 l/m 4,4 km/h (1 Bft) O-SO 1,00 h 0,356 mm 4,0 UV-I 684 W/m 10,8 C 20,7 C 14,2 km/h (3 Bft)
23.08.2015 12:00 21,9 C 49 % 1010,7 hPa 0,0 l/m 8,0 km/h (2 Bft) O-SO 1,00 h 0,432 mm 4,8 UV-I 763 W/m 10,6 C 21,1 C 17,6 km/h (3 Bft)
23.08.2015 13:00 22,5 C 46 % 1010,2 hPa 0,0 l/m 6,5 km/h (2 Bft) O-SO 1,00 h 0,508 mm 4,8 UV-I 739 W/m 10,2 C 22,1 C 16,0 km/h (3 Bft)
23.08.2015 14:00 23,4 C 43 % 1009,4 hPa 0,0 l/m 5,2 km/h (1 Bft) O 1,00 h 0,483 mm 4,4 UV-I 702 W/m 10,2 C 23,1 C 13,9 km/h (3 Bft)
23.08.2015 15:00 24,1 C 40 % 1008,7 hPa 0,0 l/m 4,1 km/h (1 Bft) SO 1,00 h 0,457 mm 3,5 UV-I 655 W/m 9,6 C 24,0 C 12,0 km/h (2 Bft)
23.08.2015 16:00 23,7 C 43 % 1008,4 hPa 0,0 l/m 3,0 km/h (1 Bft) O-NO 1,00 h 0,432 mm 2,0 UV-I 411 W/m 10,2 C 23,5 C 8,6 km/h (2 Bft)
23.08.2015 17:00 23,0 C 47 % 1008,0 hPa 0,0 l/m 2,7 km/h (1 Bft) O-SO 1,00 h 0,254 mm 1,2 UV-I 286 W/m 11,1 C 23,0 C 9,2 km/h (2 Bft)
23.08.2015 18:00 22,1 C 51 % 1007,6 hPa 0,0 l/m 2,6 km/h (1 Bft) O-SO 1,00 h 0,203 mm 0,6 UV-I 82 W/m 11,5 C 22,1 C 8,7 km/h (2 Bft)
23.08.2015 19:00 21,1 C 56 % 1007,5 hPa 0,0 l/m 0,3 km/h (0 Bft) N 0,18 h 0,076 mm 0,0 UV-I 30 W/m 11,8 C 21,1 C 1,9 km/h (1 Bft)
23.08.2015 20:00 20,1 C 59 % 1007,4 hPa 0,0 l/m 0,6 km/h (0 Bft) N 0,00 h 0,025 mm 0,0 UV-I 0 W/m 11,9 C 20,1 C 2,7 km/h (1 Bft)
23.08.2015 21:00 19,9 C 62 % 1007,5 hPa 0,0 l/m 3,4 km/h (1 Bft) SO 0,00 h 0,025 mm 0,0 UV-I 0 W/m 12,3 C 19,8 C 8,2 km/h (2 Bft)
23.08.2015 22:00 19,4 C 65 % 1007,4 hPa 0,0 l/m 2,0 km/h (1 Bft) O-SO 0,00 h 0,051 mm 0,0 UV-I 0 W/m 12,6 C 19,4 C 6,5 km/h (2 Bft)
23.08.2015 23:00 19,1 C 68 % 1008,0 hPa 0,0 l/m 2,6 km/h (1 Bft) N 0,00 h 0,051 mm 0,0 UV-I 0 W/m 13,1 C 18,9 C 5,8 km/h (2 Bft)
Min-Datum _ 22.08.15 22.08.15 23.08.15 - 17.08.15 - - - - - 21.08.15 22.08.15 17.08.15
_ Min-Zeit 06:09 15:23 20:06 - 00:00 - - - - - 17:47 06:09 00:02
Minimum _ 7,5 C 31 % 1007,2 hPa - 0,0 km/h (0 Bft) - - - - - 5,6 C 7,5 C 0,0 km/h (0 Bft)
Max-Datum _ 22.08.15 19.08.15 21.08.15 17.08.15 23.08.15 - 19.08.15 22.08.15 18.08.15 21.08.15 19.08.15 22.08.15 23.08.15
_ Max-Zeit 15:21 04:12 08:08 15:20 12:36 - 14:44 15:00 13:52 12:31 18:30 15:21 12:36
Maximum _ 25,8 C 98 % 1024,8 hPa 1,4 l/m 16,1 km/h
O-SO (3 Bft)
- 1,00 h 0,508 mm 5,5 UV-I 954 W/m 16,3 C 25,8 C 30,6 km/h
O-SO (5 Bft)
Durchschnitt _ 15,6 C 80 % 1017,1 hPa #7,6 l/m 1,4 km/h (1 Bft) N #68:18 h #12,869 mm 1,7 UV-I 209 W/m 11,6 C 15,5 C 3,6 km/h (1 Bft)